INTELSAT 25 (IS-25) (33153 NORAD) Tracking and Keplerian Element Data

This shows tracking and keplerian element data for the satellite.

Feedback or suggestion? Click here.




ElementValue
Catalog33153
NameINTELSAT 25 (IS-25)
Epoch Orbit3824
Epoch Day348.85557018
Epoch Year2018
RAAN271.5315
Inclination0.016
Eccentricity0.0002761
Argument of Perigee344.837
Mean Anonmoly103.6144
Mean Motion1.002725
Decay Rate-2.12E-06
L11 33153U 08034A 18348.85557018 -.00000212 00000-0 00000-0 0 9999
L22 33153 0.0160 271.5315 0002761 344.8370 103.6144 1.00272500 38246

Live tracking and technical data element details for INTELSAT 25 (IS-25) (NORAD 33153). INTELSAT 25 (IS-25) can be tracked NOW for your location showing map with azimuth and elevation plus other details from your city location.

Track the satellite on the map from your city or location and see movement details for azimuth, elevation, latitude, longitude, range, height, and movement on the map or in text.







IsCatalogInMostPopularTable: catalog: 33153, numindb: 64
Update: records affected: 1



GetName: 33153 INTELSAT 25 (IS-25)

Hit Count: updated at: Sun, 16 Dec 2018 11:35:01 GMT